Weather History for LFBM - March, 2013

Change the Weather History Date:

Thursday, March 7, 2013

  Actual Average Record
Temperature  
Mean Temperature 56 °F -  
Max Temperature 71 °F 59 °F 72 °F (2015)
Min Temperature 42 °F 39 °F 24 °F (2012)
Degree Days  
Heating Degree Days 8    
Growing Degree Days 6 (Base 50)    
Moisture  
Dew Point 46 °F    
Average Humidity 69    
Maximum Humidity 100    
Minimum Humidity 30    
Precipitation  
Precipitation 0.00 in - - ()
Sea Level Pressure  
Sea Level Pressure 29.45 in    
Wind  
Wind Speed 5 mph ()    
Max Wind Speed 13 mph    
Max Gust Speed -    
Visibility 5.9 miles    
Events Rain    
Averages and records for this station are not official NWS values.
T = Trace of Precipitation, MM = Missing Value Source: Averaged Metar Reports

Daily Weather History Graph

Daily Weather History Graph

Search for Another Location

Airport or City:

Trip Planner

Search our weather history database for the weather conditions in past years. The results will help you decide how hot, cold, wet, or windy it might be!

Date:

Astronomy

Mar. 07, 2013 Rise Set
Actual Time 7:28 AM CET 6:58 PM CET
Civil Twilight 6:59 AM CET 7:27 PM CET
Nautical Twilight 6:26 AM CET 8:00 PM CET
Astronomical Twilight 5:52 AM CET 8:34 PM CET
Moon 4:24 AM CET (3/7) 2:22 PM CET (3/7)
Length of Visible Light 12h 27m
Length of Day
11h 29m
Waning Crescent, 22% of the Moon is Illuminated
Mar 7
Waning Crescent
Mar 11
New
Mar 19
First Quarter
Mar 27
Full
Apr 3
Last Quarter

Hourly Weather History & Observations

Time (CET) Temp. Windchill Dew Point Humidity Pressure Visibility Wind Dir Wind Speed Gust Speed Precip Events Conditions
12:00 AM 51.8 °F - 48.2 °F 88% 29.42 in 6.2 mi East 4.6 mph - N/A   Unknown
12:30 AM 51.8 °F - 48.2 °F 88% 29.42 in 6.2 mi ESE 4.6 mph - N/A Rain Light Rain
1:00 AM 52 °F - 49 °F 85% 29.45 in 37 mi ESE 5.8 mph - -   Clear
1:00 AM 51.8 °F - 48.2 °F 88% 29.44 in 6.2 mi ESE 5.8 mph - N/A   Unknown
1:30 AM 51.8 °F - 48.2 °F 88% 29.44 in 6.2 mi East 4.6 mph - N/A   Unknown
2:00 AM 51.8 °F - 48.2 °F 88% 29.44 in 6.2 mi Variable 2.3 mph - N/A   Unknown
2:30 AM 51.8 °F - 50.0 °F 94% 29.44 in 6.2 mi Variable 3.5 mph - N/A   Unknown
3:00 AM 53.6 °F - 50.0 °F 88% 29.44 in 6.2 mi SSE 3.5 mph - N/A   Unknown
3:30 AM 53.6 °F - 50.0 °F 88% 29.47 in 6.2 mi Variable 3.5 mph - N/A   Unknown
4:00 AM 55.4 °F - 48.2 °F 77% 29.44 in 6.2 mi SW 4.6 mph - N/A   Unknown
4:30 AM 53.6 °F - 48.2 °F 82% 29.47 in 6.2 mi SW 3.5 mph - N/A   Unknown
5:00 AM 53.6 °F - 48.2 °F 82% 29.47 in 6.2 mi SSW 3.5 mph - N/A   Unknown
5:30 AM 53.6 °F - 48.2 °F 82% 29.47 in 6.2 mi Variable 2.3 mph - N/A   Unknown
6:00 AM 50.0 °F - 44.6 °F 82% 29.47 in 6.2 mi Calm Calm - N/A   Unknown
6:30 AM 46.4 °F - 42.8 °F 87% 29.47 in 1.2 mi ESE 2.3 mph - N/A   Mist
7:00 AM 45 °F - 43 °F 91% 29.51 in 6 mi East 4.6 mph - -   Clear
7:00 AM 44.6 °F 42.2 °F 42.8 °F 93% 29.50 in 6.2 mi East 4.6 mph - N/A   Unknown
7:30 AM 42.8 °F 40.1 °F 41.0 °F 93% 29.47 in 1.9 mi East 4.6 mph - N/A   Mist
8:00 AM 44.6 °F 43.1 °F 44.6 °F 100% 29.50 in 5.6 mi East 3.5 mph - N/A   Unknown
8:30 AM 48.2 °F - 48.2 °F 100% 29.50 in 6.2 mi East 5.8 mph - N/A   Unknown
9:00 AM 51.8 °F - 48.2 °F 88% 29.50 in 6.2 mi East 4.6 mph - N/A   Unknown
9:30 AM 55.4 °F - 48.2 °F 77% 29.50 in 6.2 mi East 4.6 mph - N/A   Unknown
10:00 AM 60.8 °F - 50.0 °F 68% 29.50 in 6.2 mi Variable 2.3 mph - N/A   Unknown
10:30 AM 64.4 °F - 48.2 °F 56% 29.50 in 6.2 mi Variable 2.3 mph - N/A   Unknown
11:00 AM 68.0 °F - 46.4 °F 46% 29.47 in 6.2 mi Variable 2.3 mph - N/A   Unknown
11:30 AM 69.8 °F - 44.6 °F 40% 29.47 in 6.2 mi WSW 10.4 mph - N/A   Unknown
12:00 PM 69.8 °F - 44.6 °F 40% 29.47 in 6.2 mi SSW 8.1 mph - N/A   Unknown
12:30 PM 69.8 °F - 44.6 °F 40% 29.47 in 6.2 mi South 9.2 mph - N/A   Unknown
1:00 PM 69 °F - 45 °F 30% 29.45 in 37 mi SSE 9.2 mph - -   Clear
1:00 PM 69.8 °F - 44.6 °F 40% 29.44 in 6.2 mi SSE 9.2 mph - N/A   Unknown
1:30 PM 71.6 °F - 46.4 °F 41% 29.42 in 6.2 mi SE 11.5 mph - N/A   Unknown
2:00 PM 71.6 °F - 44.6 °F 38% 29.42 in 6.2 mi SE 11.5 mph - N/A   Unknown
2:30 PM 69.8 °F - 44.6 °F 40% 29.39 in 6.2 mi ESE 12.7 mph - N/A   Unknown
3:00 PM 69.8 °F - 42.8 °F 38% 29.39 in 6.2 mi SE 10.4 mph - N/A   Unknown
3:30 PM 69.8 °F - 42.8 °F 38% 29.39 in 6.2 mi SE 9.2 mph - N/A   Unknown
4:00 PM 69.8 °F - 46.4 °F 43% 29.39 in 6.2 mi SSE 8.1 mph - N/A Rain Light Rain
4:30 PM 68.0 °F - 44.6 °F 43% 29.39 in 6.2 mi SSE 9.2 mph - N/A   Mostly Cloudy